TimeMDT,TemperatureF,Dew PointF,Humidity,Sea Level PressureIn,VisibilityMPH,Wind Direction,Wind SpeedMPH,Gust SpeedMPH,PrecipitationIn,Events,Conditions,WindDirDegrees,DateUTC
12:18 AM,42.8,42.8,100,30.61,10.0,North,-9999.0,-,N/A,,Mostly Cloudy,0,2013-07-15 06:18:00
12:38 AM,42.8,42.8,100,30.61,10.0,North,-9999.0,-,N/A,Thunderstorm,Overcast,0,2013-07-15 06:38:00
12:58 AM,42.8,42.8,100,30.61,10.0,North,-9999.0,-,N/A,,Overcast,0,2013-07-15 06:58:00
1:18 AM,42.8,42.8,100,30.62,10.0,North,-9999.0,-,N/A,,Overcast,0,2013-07-15 07:18:00
1:38 AM,42.8,42.8,100,30.62,10.0,North,-9999.0,-,N/A,,Overcast,0,2013-07-15 07:38:00
1:58 AM,42.8,42.8,100,30.62,10.0,North,-9999.0,-,N/A,,Overcast,0,2013-07-15 07:58:00
2:18 AM,42.8,42.8,100,30.62,10.0,North,-9999.0,-,N/A,,Light Drizzle,0,2013-07-15 08:18:00
2:38 AM,42.8,42.8,100,30.63,1.2,North,-9999.0,-,N/A,,Drizzle,0,2013-07-15 08:38:00
2:58 AM,42.8,42.8,100,30.62,0.2,North,-9999.0,-,N/A,Rain,Rain,0,2013-07-15 08:58:00
3:18 AM,42.8,42.8,100,30.61,0.2,North,-9999.0,-,N/A,Fog,Fog,0,2013-07-15 09:18:00
3:38 AM,42.8,42.8,100,30.60,0.2,North,-9999.0,-,N/A,Fog,Fog,0,2013-07-15 09:38:00
3:58 AM,42.8,42.8,100,30.59,0.2,North,-9999.0,-,N/A,Fog,Fog,0,2013-07-15 09:58:00
4:18 AM,42.8,42.8,100,30.59,10.0,North,-9999.0,-,N/A,,Scattered Clouds,0,2013-07-15 10:18:00
4:38 AM,42.8,42.8,100,30.59,10.0,North,-9999.0,-,N/A,,Clear,0,2013-07-15 10:38:00
4:58 AM,42.8,42.8,100,30.59,10.0,North,-9999.0,-,N/A,,Scattered Clouds,0,2013-07-15 10:58:00
5:18 AM,42.8,42.8,100,30.59,0.2,North,-9999.0,-,N/A,Fog,Fog,0,2013-07-15 11:18:00
5:38 AM,42.8,42.8,100,30.59,0.2,North,-9999.0,-,N/A,Fog,Fog,0,2013-07-15 11:38:00
5:58 AM,42.8,42.8,100,30.58,0.2,North,-9999.0,-,N/A,Fog,Fog,0,2013-07-15 11:58:00
6:18 AM,42.8,42.8,100,30.57,0.2,North,-9999.0,-,N/A,Fog,Fog,0,2013-07-15 12:18:00
6:38 AM,42.8,42.8,100,30.57,0.2,North,-9999.0,-,N/A,Fog,Fog,0,2013-07-15 12:38:00
6:58 AM,42.8,42.8,100,30.57,0.2,North,-9999.0,-,N/A,Fog,Fog,0,2013-07-15 12:58:00
7:18 AM,42.8,42.8,100,30.58,0.2,North,-9999.0,-,N/A,Fog,Fog,0,2013-07-15 13:18:00
7:38 AM,44.6,44.6,100,30.59,2.0,North,-9999.0,-,N/A,,Overcast,0,2013-07-15 13:38:00
7:58 AM,42.8,42.8,100,30.59,0.2,North,-9999.0,-,N/A,Fog,Fog,0,2013-07-15 13:58:00
8:18 AM,44.6,42.8,93,30.59,10.0,North,-9999.0,-,N/A,,Mostly Cloudy,0,2013-07-15 14:18:00
8:38 AM,44.6,44.6,100,30.59,10.0,North,-9999.0,-,N/A,,Mostly Cloudy,0,2013-07-15 14:38:00
8:58 AM,44.6,42.8,93,30.59,10.0,North,-9999.0,-,N/A,,Mostly Cloudy,0,2013-07-15 14:58:00
9:18 AM,44.6,42.8,93,30.59,10.0,North,-9999.0,-,N/A,,Overcast,0,2013-07-15 15:18:00
9:38 AM,50.0,44.6,82,30.59,10.0,North,-9999.0,-,N/A,,Mostly Cloudy,0,2013-07-15 15:38:00
9:58 AM,51.8,44.6,76,30.59,10.0,North,-9999.0,-,N/A,,Mostly Cloudy,0,2013-07-15 15:58:00
10:18 AM,48.2,44.6,87,30.59,10.0,North,-9999.0,-,N/A,,Mostly Cloudy,0,2013-07-15 16:18:00
10:38 AM,50.0,44.6,82,30.60,10.0,North,-9999.0,-,N/A,,Overcast,0,2013-07-15 16:38:00
10:58 AM,53.6,44.6,72,30.61,10.0,North,-9999.0,-,N/A,,Mostly Cloudy,0,2013-07-15 16:58:00
11:18 AM,50.0,44.6,82,30.61,10.0,North,-9999.0,-,N/A,,Overcast,0,2013-07-15 17:18:00
11:38 AM,50.0,42.8,76,30.60,10.0,North,-9999.0,-,N/A,,Overcast,0,2013-07-15 17:38:00
11:58 AM,50.0,42.8,76,30.61,10.0,North,-9999.0,-,N/A,,Overcast,0,2013-07-15 17:58:00
12:18 PM,48.2,42.8,82,30.59,10.0,North,-9999.0,-,N/A,,Overcast,0,2013-07-15 18:18:00
12:38 PM,50.0,44.6,82,30.59,10.0,North,-9999.0,-,N/A,Thunderstorm,Overcast,0,2013-07-15 18:38:00
12:58 PM,51.8,42.8,71,30.59,10.0,North,-9999.0,-,N/A,Thunderstorm,Overcast,0,2013-07-15 18:58:00
1:18 PM,48.2,44.6,87,30.59,10.0,North,-9999.0,-,N/A,,Overcast,0,2013-07-15 19:18:00
1:38 PM,50.0,42.8,76,30.57,10.0,North,-9999.0,-,N/A,,Overcast,0,2013-07-15 19:38:00
1:58 PM,51.8,44.6,76,30.56,10.0,North,-9999.0,-,N/A,Thunderstorm,Overcast,0,2013-07-15 19:58:00
2:18 PM,50.0,44.6,82,30.57,10.0,North,-9999.0,-,N/A,,Light Drizzle,0,2013-07-15 20:18:00
2:38 PM,46.4,42.8,87,30.57,10.0,North,-9999.0,-,N/A,Thunderstorm,Overcast,0,2013-07-15 20:38:00
2:58 PM,48.2,44.6,87,30.57,10.0,North,-9999.0,-,N/A,Rain,Light Rain,0,2013-07-15 20:58:00
3:18 PM,50.0,46.4,87,30.56,10.0,North,-9999.0,-,N/A,,Light Drizzle,0,2013-07-15 21:18:00
3:38 PM,48.2,44.6,87,30.56,10.0,North,-9999.0,-,N/A,,Light Drizzle,0,2013-07-15 21:38:00
3:58 PM,51.8,44.6,76,30.55,10.0,North,-9999.0,-,N/A,Thunderstorm,Mostly Cloudy,0,2013-07-15 21:58:00
4:18 PM,46.4,46.4,100,30.56,2.0,North,-9999.0,-,0.04,Rain,Light Rain,0,2013-07-15 22:18:00
4:38 PM,46.4,44.6,93,30.55,10.0,North,-9999.0,-,0.04,,Overcast,0,2013-07-15 22:38:00
4:58 PM,46.4,44.6,93,30.56,10.0,North,-9999.0,-,0.04,Thunderstorm,Overcast,0,2013-07-15 22:58:00
5:18 PM,46.4,44.6,93,30.55,7.0,North,-9999.0,-,0.01,Rain-Thunderstorm,Light Thunderstorms and Rain,0,2013-07-15 23:18:00
5:38 PM,46.4,44.6,93,30.54,7.0,North,-9999.0,-,0.02,Rain,Rain,0,2013-07-15 23:38:00
5:58 PM,46.4,46.4,100,30.55,0.2,North,-9999.0,-,0.03,Rain-Thunderstorm,Light Thunderstorms and Rain,0,2013-07-15 23:58:00
6:18 PM,44.6,44.6,100,30.55,10.0,North,-9999.0,-,N/A,,Overcast,0,2013-07-16 00:18:00
6:38 PM,44.6,44.6,100,30.55,10.0,North,-9999.0,-,N/A,,Overcast,0,2013-07-16 00:38:00
6:58 PM,44.6,44.6,100,30.55,10.0,North,-9999.0,-,N/A,Thunderstorm,Overcast,0,2013-07-16 00:58:00
7:18 PM,44.6,44.6,100,30.55,10.0,North,-9999.0,-,N/A,,Overcast,0,2013-07-16 01:18:00
7:38 PM,44.6,44.6,100,30.56,0.2,North,-9999.0,-,N/A,Fog,Fog,0,2013-07-16 01:38:00
7:58 PM,44.6,44.6,100,30.56,0.2,North,-9999.0,-,N/A,Fog-Thunderstorm,Fog,0,2013-07-16 01:58:00
8:18 PM,44.6,44.6,100,30.56,0.2,North,-9999.0,-,N/A,Fog-Thunderstorm,Fog,0,2013-07-16 02:18:00
8:38 PM,44.6,44.6,100,30.56,0.2,North,-9999.0,-,N/A,Rain,Light Rain,0,2013-07-16 02:38:00
8:58 PM,44.6,44.6,100,30.57,0.2,North,-9999.0,-,N/A,,Unknown,0,2013-07-16 02:58:00
9:18 PM,44.6,44.6,100,30.57,0.2,North,-9999.0,-,N/A,,Light Drizzle,0,2013-07-16 03:18:00
9:38 PM,44.6,44.6,100,30.57,0.2,North,-9999.0,-,N/A,Rain,Light Rain,0,2013-07-16 03:38:00
9:58 PM,44.6,44.6,100,30.58,0.2,North,-9999.0,-,N/A,Rain,Light Rain,0,2013-07-16 03:58:00
10:18 PM,44.6,44.6,100,30.59,0.2,North,-9999.0,-,N/A,,Drizzle,0,2013-07-16 04:18:00
10:38 PM,42.8,42.8,100,30.59,0.2,North,-9999.0,-,N/A,Rain,Rain,0,2013-07-16 04:38:00
10:58 PM,42.8,42.8,100,30.59,0.2,North,-9999.0,-,N/A,,Unknown,0,2013-07-16 04:58:00
11:18 PM,41.0,41.0,100,30.59,0.2,North,-9999.0,-,N/A,Fog,Fog,0,2013-07-16 05:18:00
11:38 PM,41.0,41.0,100,30.59,0.2,North,-9999.0,-,N/A,Fog,Fog,0,2013-07-16 05:38:00
11:58 PM,41.0,41.0,100,30.59,0.2,North,-9999.0,-,N/A,Fog,Fog,0,2013-07-16 05:58:00